Time,TemperatureF,DewpointF,PressureIn,WindDirection,WindDirectionDegrees,WindSpeedMPH,WindSpeedGustMPH,Humidity,HourlyPrecipIn,Conditions,Clouds,dailyrainin,SoftwareType,DateUTC
2013-06-24 00:03:00,74.2,73.0,30.15,East,92,0.0,1.0,97,0.00,,,0.00,weatherlink.com 1.10,2013-06-24 04:03:00,
2013-06-24 00:19:00,74.3,73.0,30.15,East,92,0.0,0.0,97,0.00,,,0.00,weatherlink.com 1.10,2013-06-24 04:19:00,
2013-06-24 00:34:00,74.6,74.0,30.15,East,92,0.0,0.0,97,0.00,,,0.00,weatherlink.com 1.10,2013-06-24 04:34:00,
2013-06-24 00:49:00,74.2,73.0,30.15,East,92,0.0,1.0,97,0.00,,,0.00,weatherlink.com 1.10,2013-06-24 04:49:00,
2013-06-24 01:04:00,74.0,73.0,30.15,East,92,0.0,0.0,97,0.00,,,0.00,weatherlink.com 1.10,2013-06-24 05:04:00,
2013-06-24 01:19:00,73.9,73.0,30.15,East,92,0.0,1.0,97,0.00,,,0.00,weatherlink.com 1.10,2013-06-24 05:19:00,
2013-06-24 01:34:00,73.8,73.0,30.15,East,92,0.0,0.0,97,0.00,,,0.00,weatherlink.com 1.10,2013-06-24 05:34:00,
2013-06-24 01:49:00,73.7,73.0,30.15,East,92,0.0,0.0,97,0.00,,,0.00,weatherlink.com 1.10,2013-06-24 05:49:00,
2013-06-24 02:19:00,73.5,73.0,30.16,East,92,0.0,0.0,98,0.00,,,0.00,weatherlink.com 1.10,2013-06-24 06:19:00,
2013-06-24 02:34:00,73.4,73.0,30.16,East,92,0.0,0.0,98,0.00,,,0.00,weatherlink.com 1.10,2013-06-24 06:34:00,
2013-06-24 03:04:00,72.7,72.0,30.16,East,92,0.0,0.0,98,0.00,,,0.00,weatherlink.com 1.10,2013-06-24 07:04:00,
2013-06-24 03:19:00,72.6,72.0,30.15,East,92,0.0,0.0,98,0.00,,,0.00,weatherlink.com 1.10,2013-06-24 07:19:00,
2013-06-24 03:34:00,72.8,72.0,30.15,East,92,0.0,0.0,98,0.00,,,0.00,weatherlink.com 1.10,2013-06-24 07:34:00,
2013-06-24 03:49:00,72.6,72.0,30.15,East,92,0.0,0.0,98,0.00,,,0.00,weatherlink.com 1.10,2013-06-24 07:49:00,
2013-06-24 04:04:00,72.5,72.0,30.15,East,92,0.0,0.0,99,0.00,,,0.00,weatherlink.com 1.10,2013-06-24 08:04:00,
2013-06-24 04:19:00,72.2,72.0,30.15,East,92,0.0,0.0,98,0.00,,,0.00,weatherlink.com 1.10,2013-06-24 08:19:00,
2013-06-24 04:49:00,71.6,71.0,30.16,East,92,0.0,1.0,98,0.00,,,0.00,weatherlink.com 1.10,2013-06-24 08:49:00,
2013-06-24 05:19:00,71.2,71.0,30.16,East,92,0.0,0.0,98,0.00,,,0.00,weatherlink.com 1.10,2013-06-24 09:19:00,
2013-06-24 05:34:00,71.1,71.0,30.16,East,92,0.0,0.0,98,0.00,,,0.00,weatherlink.com 1.10,2013-06-24 09:34:00,
2013-06-24 06:04:00,71.5,71.0,30.17,East,92,0.0,0.0,99,0.00,,,0.00,weatherlink.com 1.10,2013-06-24 10:04:00,
2013-06-24 06:20:00,70.9,70.0,30.17,East,92,0.0,1.0,98,0.00,,,0.00,weatherlink.com 1.10,2013-06-24 10:20:00,
2013-06-24 06:50:00,71.1,71.0,30.18,East,92,0.0,0.0,99,0.00,,,0.00,weatherlink.com 1.10,2013-06-24 10:50:00,
2013-06-24 07:05:00,71.5,71.0,30.18,East,92,0.0,1.0,99,0.00,,,0.00,weatherlink.com 1.10,2013-06-24 11:05:00,
2013-06-24 07:20:00,71.6,71.0,30.18,East,92,0.0,0.0,98,0.00,,,0.00,weatherlink.com 1.10,2013-06-24 11:20:00,
2013-06-24 07:50:00,73.2,73.0,30.19,East,92,0.0,1.0,99,0.00,,,0.00,weatherlink.com 1.10,2013-06-24 11:50:00,
2013-06-24 08:05:00,74.3,74.0,30.19,East,92,0.0,1.0,98,0.00,,,0.00,weatherlink.com 1.10,2013-06-24 12:05:00,
2013-06-24 08:20:00,76.4,76.0,30.20,East,92,0.0,1.0,98,0.00,,,0.00,weatherlink.com 1.10,2013-06-24 12:20:00,
2013-06-24 08:50:00,79.3,77.0,30.20,East,92,0.0,2.0,92,0.00,,,0.00,weatherlink.com 1.10,2013-06-24 12:50:00,
2013-06-24 09:05:00,79.5,77.0,30.20,WNW,288,1.0,3.0,91,0.00,,,0.00,weatherlink.com 1.10,2013-06-24 13:05:00,
2013-06-24 09:20:00,80.0,77.0,30.20,SE,146,0.0,2.0,90,0.00,,,0.00,weatherlink.com 1.10,2013-06-24 13:20:00,
2013-06-24 09:35:00,81.2,76.0,30.19,East,89,0.0,3.0,85,0.00,,,0.00,weatherlink.com 1.10,2013-06-24 13:35:00,
2013-06-24 09:50:00,81.1,76.0,30.20,NNW,336,0.0,3.0,85,0.00,,,0.00,weatherlink.com 1.10,2013-06-24 13:50:00,
2013-06-24 10:05:00,80.7,76.0,30.20,NE,36,1.0,2.0,86,0.00,,,0.00,weatherlink.com 1.10,2013-06-24 14:05:00,
2013-06-24 10:20:00,79.5,75.0,30.20,NW,325,1.0,1.0,87,0.00,,,0.00,weatherlink.com 1.10,2013-06-24 14:20:00,
2013-06-24 10:35:00,78.8,76.0,30.20,NW,325,1.0,2.0,90,0.00,,,0.00,weatherlink.com 1.10,2013-06-24 14:35:00,
2013-06-24 11:05:00,83.9,76.0,30.21,NW,317,0.0,3.0,78,0.00,,,0.00,weatherlink.com 1.10,2013-06-24 15:05:00,
2013-06-24 11:20:00,85.6,77.0,30.20,South,190,0.0,2.0,75,0.00,,,0.00,weatherlink.com 1.10,2013-06-24 15:20:00,
2013-06-24 11:50:00,83.5,75.0,30.20,NE,47,1.0,2.0,76,0.01,,,0.01,weatherlink.com 1.10,2013-06-24 15:50:00,
2013-06-24 12:05:00,78.9,76.0,30.21,South,181,1.0,3.0,90,0.01,,,0.01,weatherlink.com 1.10,2013-06-24 16:05:00,
2013-06-24 12:20:00,77.1,76.0,30.21,East,96,0.0,3.0,97,0.01,,,0.01,weatherlink.com 1.10,2013-06-24 16:20:00,
2013-06-24 12:50:00,77.8,77.0,30.20,East,96,0.0,1.0,97,0.00,,,0.01,weatherlink.com 1.10,2013-06-24 16:50:00,
2013-06-24 13:05:00,79.8,79.0,30.20,East,87,1.0,1.0,97,0.00,,,0.01,weatherlink.com 1.10,2013-06-24 17:05:00,
2013-06-24 13:35:00,78.9,78.0,30.19,East,86,0.0,3.0,96,0.00,,,0.01,weatherlink.com 1.10,2013-06-24 17:35:00,
2013-06-24 13:51:00,78.1,77.0,30.18,East,90,2.0,3.0,96,0.00,,,0.01,weatherlink.com 1.10,2013-06-24 17:51:00,
2013-06-24 14:35:00,74.6,74.0,30.18,NE,55,0.0,2.0,98,0.36,,,0.37,weatherlink.com 1.10,2013-06-24 18:35:00,
2013-06-24 15:05:00,75.8,76.0,30.16,NE,49,0.0,2.0,99,0.28,,,0.46,weatherlink.com 1.10,2013-06-24 19:05:00,
2013-06-24 15:51:00,76.9,76.0,30.13,NE,49,0.0,2.0,98,0.03,,,0.46,weatherlink.com 1.10,2013-06-24 19:51:00,
2013-06-24 16:36:00,77.2,77.0,30.14,NE,49,0.0,1.0,98,0.00,,,0.46,weatherlink.com 1.10,2013-06-24 20:36:00,
2013-06-24 16:51:00,76.9,76.0,30.14,NE,49,0.0,1.0,98,0.00,,,0.46,weatherlink.com 1.10,2013-06-24 20:51:00,
2013-06-24 17:06:00,77.2,77.0,30.13,NE,49,0.0,1.0,98,0.00,,,0.46,weatherlink.com 1.10,2013-06-24 21:06:00,
2013-06-24 17:51:00,79.9,77.0,30.13,NE,49,1.0,2.0,91,0.00,,,0.46,weatherlink.com 1.10,2013-06-24 21:51:00,
2013-06-24 18:06:00,81.6,78.0,30.12,West,259,1.0,2.0,89,0.00,,,0.46,weatherlink.com 1.10,2013-06-24 22:06:00,
2013-06-24 18:36:00,80.8,77.0,30.13,NNE,22,0.0,2.0,87,0.00,,,0.46,weatherlink.com 1.10,2013-06-24 22:36:00,
2013-06-24 18:51:00,80.2,76.0,30.13,NE,36,1.0,2.0,87,0.00,,,0.46,weatherlink.com 1.10,2013-06-24 22:51:00,
2013-06-24 19:06:00,79.4,76.0,30.13,NNW,341,0.0,1.0,89,0.00,,,0.46,weatherlink.com 1.10,2013-06-24 23:06:00,
2013-06-24 19:22:00,78.9,76.0,30.14,NNW,341,0.0,1.0,91,0.00,,,0.46,weatherlink.com 1.10,2013-06-24 23:22:00,
2013-06-24 19:36:00,78.6,76.0,30.14,WNW,291,0.0,1.0,92,0.00,,,0.46,weatherlink.com 1.10,2013-06-24 23:36:00,
2013-06-24 19:51:00,78.3,76.0,30.14,WNW,291,0.0,0.0,93,0.00,,,0.46,weatherlink.com 1.10,2013-06-24 23:51:00,
2013-06-24 20:06:00,78.0,77.0,30.16,WNW,291,0.0,1.0,95,0.00,,,0.46,weatherlink.com 1.10,2013-06-25 00:06:00,
2013-06-24 20:21:00,77.7,76.0,30.16,WNW,291,0.0,0.0,95,0.00,,,0.46,weatherlink.com 1.10,2013-06-25 00:21:00,
2013-06-24 20:36:00,77.3,76.0,30.15,WNW,291,0.0,0.0,95,0.00,,,0.46,weatherlink.com 1.10,2013-06-25 00:36:00,
2013-06-24 20:51:00,77.0,76.0,30.15,WNW,291,0.0,0.0,95,0.00,,,0.46,weatherlink.com 1.10,2013-06-25 00:51:00,
2013-06-24 21:06:00,76.8,76.0,30.15,WNW,291,0.0,1.0,96,0.00,,,0.46,weatherlink.com 1.10,2013-06-25 01:06:00,
2013-06-24 21:21:00,76.5,76.0,30.15,WNW,291,0.0,1.0,97,0.00,,,0.46,weatherlink.com 1.10,2013-06-25 01:21:00,
2013-06-24 21:36:00,76.1,75.0,30.15,WNW,291,0.0,0.0,97,0.00,,,0.46,weatherlink.com 1.10,2013-06-25 01:36:00,
2013-06-24 22:06:00,75.5,75.0,30.16,WNW,291,0.0,0.0,98,0.00,,,0.46,weatherlink.com 1.10,2013-06-25 02:06:00,
2013-06-24 22:21:00,75.2,75.0,30.15,WNW,291,0.0,0.0,98,0.00,,,0.46,weatherlink.com 1.10,2013-06-25 02:21:00,
2013-06-24 22:36:00,74.9,74.0,30.15,WNW,291,0.0,0.0,98,0.00,,,0.46,weatherlink.com 1.10,2013-06-25 02:36:00,
2013-06-24 22:51:00,74.8,74.0,30.15,WNW,291,0.0,0.0,98,0.00,,,0.46,weatherlink.com 1.10,2013-06-25 02:51:00,
2013-06-24 23:21:00,74.3,74.0,30.15,WNW,291,0.0,1.0,98,0.00,,,0.46,weatherlink.com 1.10,2013-06-25 03:21:00,
2013-06-24 23:36:00,74.3,74.0,30.14,WNW,291,0.0,1.0,99,0.00,,,0.46,weatherlink.com 1.10,2013-06-25 03:36:00,
2013-06-24 23:51:00,74.6,74.0,30.14,WNW,291,0.0,1.0,99,0.00,,,0.46,weatherlink.com 1.10,2013-06-25 03:51:00,